STARLINK-1170 (45073 NORAD) Tracking and Keplerian Element Data

This shows tracking and keplerian element data for the satellite.

Feedback or suggestion? Click here.




ElementValue
Catalog45073
NameSTARLINK-1170
Epoch Orbit175
Epoch Day184.91667824
Epoch Year2020
RAAN225.1229
Inclination52.9993
Eccentricity0.0001073
Argument of Perigee106.0907
Mean Anonmoly251.6483
Mean Motion15.05553436
Decay Rate0.00022836
L11 45073U 20006AF 20184.91667824 .00022836 00000-0 15825-2 0 9999
L22 45073 52.9993 225.1229 0001073 106.0907 251.6483 15.05553436 1754

Live tracking and technical data element details for STARLINK-1170 (NORAD 45073). STARLINK-1170 can be tracked NOW for your location showing map with azimuth and elevation plus other details from your city location.

Track the satellite on the map from your city or location and see movement details for azimuth, elevation, latitude, longitude, range, height, and movement on the map or in text.







IsCatalogInMostPopularTable: catalog: 45073, numindb: 38
Update: records affected: 1



GetName: 45073 STARLINK-1170

Hit Count: updated at: Fri, 03 Jul 2020 17:05:57 GMT